Tracking 29967 objects as of 6-Dec-2024
HD Live streaming from Space Station
objects crossing your sky now

TITAN 3C TRANSTAGE R/B

Track TITAN 3C TRANSTAGE R/B now!


NORAD ID: 2868
Int'l Code: 1967-066G
Perigee: 33,199.8 km
Apogee: 33,868.4 km
Inclination: 1.1 °
Period: 1,322.2 minutes
Semi major axis: 39905 km
RCS: 1.6554 m2 (large)
Launch date: July 1, 1967
Source: United States (US)
Launch site: AIR FORCE EASTERN TEST RANGE (AFETR)

Note: This is a ROCKET BODY
Your satellite tracking list
Your tracking list is empty




NASA's NSSDC Master Catalog

Two Line Element Set (TLE):
1 02868U 67066G   24340.46680793 -.00000090  00000-0  00000-0 0  9995
2 02868   1.1305 127.2414 0083768 136.2935 228.6780  1.08908139122252
Source of the keplerian elements: AFSPC